Location: Norton
(51.3000°N, 0.8167°E)
Time: 17:46:03
(UTC+00:00)

USA 234 - Pass Details

Date: 03 March 2021
Orbit: 1102 x 1105 km, 123.0° (Epoch: 13 April)

Event Time Altitude Azimuth Distance (km) Brightness Sun altitude
Exits shadow 19:39:57 26° 75° (ENE) 2,023 4.2 -19.2°
Maximum altitude 19:43:33 51° 139° (SE) 1,356 3.4 -19.8°
Drops below altitude 10° 19:49:53 10° 214° (SW) 2,956 5.7 -20.7°
Sets 19:52:27 0° 220° (SW) 3,911 6.5 -21.1°
